This demonstration page uses our WeatherBlox Daily Observations layout. Learn more.

Left ArrowRight Arrow

31.84235, -102.49876

Hourly Observations for May 19, 2022

Temp ( °F °C ) Dew Point ( °F °C ) Humidity (%) Winds ( mph kmh ) Pressure ( in mb ) Visibility ( mi km ) Precip ( " mm )
12:53 am 00:53 Clear 84 28.9 50 10 31 31 SSW 15 24 29.67 1005 10 16 0.00 0.00
1:53 am 01:53 Clear 81 27.2 54 12.2 39 39 SSW 14 22 29.67 1005 10 16 0.00 0.00
2:53 am 02:53 Clear 81 27.2 56 13.3 42 42 SSW 15 24 29.65 1004 10 16 0.00 0.00
3:53 am 03:53 Clear 80 26.7 55 12.8 42 42 SSW 12 19 29.64 1004 10 16 0.00 0.00
4:53 am 04:53 Clear 79 26.1 51 10.6 38 38 SSW 16 26 29.64 1004 10 16 0.00 0.00
5:53 am 05:53 Clear 77 25 51 10.6 40 40 SSW 12 19 29.64 1004 10 16 0.00 0.00
6:53 am 06:53 Sunny 74 23.3 50 10 43 43 SSW 10 17 29.65 1004 10 16 0.00 0.00
7:53 am 07:53 Sunny 75 23.9 51 10.6 43 43 SSW 8 13 29.67 1005 10 16 0.00 0.00
8:53 am 08:53 Sunny 79 26.1 50 10 36 36 SW 10 17 29.67 1005 10 16 0.00 0.00
9:53 am 09:53 Sunny 85 29.4 44 6.7 24 24 SW 13 20 29.67 1005 10 16 0.00 0.00
10:53 am 10:53 Sunny 90 32.2 37 2.8 15 15 SSW 12 19 29.65 1004 10 16 0.00 0.00
11:53 am 11:53 Sunny 94 34.4 32 0 11 11 SSW 8 13 29.63 1003 10 16 0.00 0.00
12:53 pm 12:53 Sunny 98 36.7 27 -2.8 8 8 WSW 18 30 29.60 1002 10 16 0.00 0.00
1:53 pm 13:53 Sunny 99 37.2 21 -6.1 6 6 W 15 24 29.57 1001 10 16 0.00 0.00
2:53 pm 14:53 Sunny 101 38.3 21 -6.1 6 6 W 18 30 29.53 1000 10 16 0.00 0.00
3:53 pm 15:53 Sunny 103 39.4 20 -6.7 5 5 W 22 35 29.50 999 9 14 0.00 0.00
4:53 pm 16:53 Sunny 103 39.4 21 -6.1 5 5 WNW 14 22 29.46 998 9 14 0.00 0.00
5:53 pm 17:53 Sunny 103 39.4 20 -6.7 5 5 W 24 39 29.44 997 10 16 0.00 0.00
6:53 pm 18:53 Sunny 101 38.3 20 -6.7 5 5 W 17 28 29.43 997 10 16 0.00 0.00
7:53 pm 19:53 Sunny 99 37.2 15 -9.4 5 5 WSW 17 28 29.42 996 10 16 0.00 0.00
8:53 pm 20:53 Clear 95 35 17 -8.3 6 6 W 12 19 29.43 997 10 16 0.00 0.00
9:53 pm 21:53 Clear 89 31.7 17 -8.3 7 7 W 8 13 29.44 997 10 16 0.00 0.00
10:53 pm 22:53 Clear 85 29.4 17 -8.3 8 8 W 10 17 29.45 997 10 16 0.00 0.00
11:53 pm 23:53 Clear 82 27.8 17 -8.3 9 9 W 9 15 29.45 997 10 16 0.00 0.00

Powered by AerisWeather